Terminal Aerodrome Forecast
Issued by NWS Billings, MT

Home | Current Version | Previous Version | Text Only | Print | Product List | Glossary Off
Versions: 1 2 3 4 5 6 7 8 9 10 11 12 13 14 15 16 17 18 19 20 21 22 23 24 25 26 27 28 29 30 31

000
FTUS45 KBYZ 241730
TAFMLS
TAF
KMLS 241730Z 2418/2518 25010KT P6SM SCT080 BKN150
     FM250300 34012KT P6SM -SHRASN SCT025 BKN050
     FM250700 35010KT 2SM -SN BR SCT009 OVC012
     FM251500 35011KT P6SM OVC015=

USA.gov is the U.S. government's official web portal to all federal, state and local government web resources and services.